7 * 24
多渠道服务支持
STARLINK-32274 是 SpaceX Starlink 卫星互联网项目中的一颗低轨卫星,属于第二代 Starlink 卫星星座的一部分。该卫星于2023年发射,旨在为全球用户提供高速、低延迟的宽带互联网服务。它运行在约550公里高的近地轨道,配备先进通信设备和激光链路,支持卫星间高速数据传输。作为 Starlink 计划的重要组成部分,该卫星有助于扩大覆盖范围,提升网络性能,特别是在偏远和网络基础设施薄弱的地区。
美国
(US)
| 数据来源 | 国际轨道数据 |
| 星历时间: | 2025-12-19T21:08:27+0800 18小时前 查看轨道信息 |
| 半长轴: | 6853.379km |
| 偏心率: | 0.000146 |
| 轨道倾角: | 53.161° |
| 近地点辐角 | 88.309° |
| 升交点赤经 | 296.180° |
| 平近点角 | 271.808° |
| 近地点: | 474.241km |
| 远地点: | 476.243km |
| 周期: | 94.106分钟 |
| 每日圈数: | 15.301911 |